Temperature
24 22 23 23 23 24 24 24 24 24 25 24 23 23 22 22 22 22 22 22 22 22 22 22 22 21 21 21 21 21 20 20 20 20 20 20 19 19 19 19 19 19 19 19
23 23 24 24 24 24 24 24 24 24 24 24 23 23 22 22 22 22 22 22 22 22 22 22 22 21 21 21 21 21 20 20 20 20 20 19 19 19 19 19 19 19 19 18
24 25 25 25 25 24 24 24 24 24 24 23 23 22 22 22 22 22 22 22 22 22 22 22 22 22 21 21 21 21 20 20 20 20 20 19 19 19 19 19 19 19 19 18
24 25 25 25 25 25 24 24 24 24 22 21 23 21 22 21 21 21 22 22 22 22 22 22 22 22 22 22 21 21 20 20 20 20 20 19 19 19 19 19 19 19 18 18
25 25 26 26 25 25 24 24 24 23 22 21 21 21 21 21 21 21 21 22 22 22 22 23 22 22 22 22 21 21 20 20 20 20 19 19 19 19 19 19 19 19 18 18
25 25 26 26 26 25 24 23 22 20 20 21 21 21 21 20 21 21 22 22 22 22 23 23 23 22 22 21 21 21 21 20 20 20 19 19 19 19 19 19 19 19 18 18
25 25 25 26 25 25 24 22 21 22 20 21 21 21 20 21 21 22 22 22 22 22 23 23 22 22 22 22 21 21 21 21 20 20 20 19 19 19 19 18 18 18 18 18
24 24 25 25 25 24 23 22 21 22 21 21 21 20 21 22 22 22 22 22 22 22 22 22 22 22 22 22 21 21 21 21 20 20 20 19 19 19 19 18 18 18 18 18
22 23 25 26 25 24 23 21 21 20 20 20 20 20 21 22 21 21 21 22 22 22 22 22 22 22 22 22 22 21 21 21 20 20 20 19 19 19 18 18 18 18 18 18
22 24 24 24 25 24 23 20 19 19 20 21 21 21 21 22 21 21 20 21 21 22 22 22 22 22 22 22 22 21 21 21 20 20 19 19 19 19 18 18 18 18 18 18
22 23 23 24 24 24 23 21 18 17 19 20 21 21 22 21 20 20 20 21 21 22 22 22 22 22 22 22 22 21 21 20 20 20 19 19 19 19 18 18 18 18 18 18
20 20 21 22 23 23 23 21 19 21 20 18 19 20 22 20 20 20 20 21 22 22 22 22 22 22 22 21 21 21 21 21 20 20 19 19 19 19 18 18 18 18 18 17
20 20 21 22 22 22 22 21 19 18 17 17 19 21 21 20 20 20 20 21 22 22 22 22 22 22 22 21 21 21 21 20 20 20 19 19 19 19 18 18 18 18 17 17
20 18 20 22 21 22 22 22 20 19 18 18 19 20 21 20 19 19 20 20 21 21 21 22 22 22 22 21 21 21 20 20 20 20 19 19 19 18 18 18 18 17 17 17
19 19 20 20 21 22 22 22 21 20 19 20 20 20 20 19 19 19 20 20 21 21 21 21 21 21 21 21 21 21 20 20 20 19 19 19 18 18 18 18 17 17 17 17
17 19 20 21 21 21 21 21 21 21 20 20 20 20 19 19 19 19 19 20 20 20 21 21 21 21 21 21 21 20 20 20 19 19 19 18 18 18 18 17 17 17 17 17
16 18 19 19 20 21 21 20 20 20 19 20 20 20 18 18 18 19 19 20 20 20 20 21 21 21 21 21 20 20 20 20 19 19 18 18 18 18 18 17 17 17 17 17
16 16 15 17 20 21 20 20 20 19 19 18 19 18 18 18 19 20 20 20 20 21 21 21 21 21 21 20 20 20 20 19 19 19 18 18 18 18 17 17 17 17 16 16
14 15 15 16 18 19 20 20 20 19 19 18 18 18 18 19 19 19 20 20 20 21 21 21 21 21 20 20 20 20 19 19 19 18 18 18 17 17 17 17 17 16 16 16
14 14 15 15 18 19 19 20 20 20 19 19 18 17 17 18 17 18 19 20 20 20 20 20 20 20 20 20 19 19 19 19 18 18 18 17 17 17 17 17 16 16 16 16
16 15 15 16 17 18 19 19 20 20 19 19 18 18 18 17 18 19 19 19 19 19 20 19 19 19 19 19 19 19 19 18 18 18 17 17 17 16 16 16 16 16 16 15
15 15 15 14 17 18 18 18 18 18 19 19 19 19 18 18 18 19 19 19 19 19 19 19 19 19 19 19 18 18 18 18 18 17 17 17 16 16 16 16 16 15 15 15
14 14 14 15 16 16 17 17 19 19 19 19 19 19 19 19 18 18 19 19 19 19 19 18 18 18 18 18 18 18 18 17 17 17 17 16 16 16 16 15 15 15 15 15
14 13 13 14 15 16 17 18 19 19 19 19 19 19 19 18 18 18 18 18 18 18 18 18 18 18 18 18 18 18 17 17 17 17 16 16 16 16 15 15 15 14 14 14
14 13 13 14 14 16 17 18 19 19 19 19 18 18 18 18 18 18 18 18 18 18 18 17 17 17 17 17 17 17 17 16 16 16 16 16 15 15 15 15 14 14 14 14
12 13 13 14 15 15 17 18 18 18 18 18 18 18 18 18 18 17 17 17 17 17 17 17 17 17 17 17 17 16 16 16 16 15 15 15 15 15 14 14 14 14 14 13
Wind_Speed
2 3 4 7 7 6 5 3 3 4 2 3 3 3 3 5 6 7 7 7 7 7 4 4 4 4 5 4 4 4 4 4 4 3 3 2 1 1 1 1 1 2 2 3
4 3 7 4 4 3 3 2 2 3 1 2 1 3 3 5 7 7 8 9 8 6 5 5 4 5 5 5 5 4 4 4 4 3 3 2 2 1 1 0 1 1 2 3
5 5 3 4 4 3 3 5 5 3 2 3 2 4 3 2 2 3 5 6 7 9 8 7 6 6 5 5 6 5 4 4 3 4 3 3 3 2 1 1 0 0 1 2
4 4 3 3 3 5 4 5 5 3 3 1 2 2 6 3 3 4 6 7 8 8 8 8 8 7 8 7 5 5 4 4 3 4 4 4 3 2 2 1 1 0 0 1
5 3 3 3 5 6 4 2 3 2 3 2 2 2 6 1 3 7 7 8 8 8 9 9 9 9 7 6 6 5 5 4 3 3 4 4 3 2 1 1 1 0 0 1
5 3 4 4 2 5 5 6 6 6 5 1 2 3 6 4 6 6 6 6 7 7 8 8 6 5 5 5 5 6 6 4 3 4 3 4 4 3 2 2 1 1 1 1
4 4 2 3 2 2 5 6 4 4 3 4 2 3 7 7 6 6 6 6 5 6 6 6 6 6 6 6 6 6 6 5 4 4 4 4 4 4 4 3 3 2 1 1
2 5 4 3 6 6 5 8 7 5 5 4 2 4 7 5 4 3 4 4 4 5 6 7 7 7 7 7 6 6 7 5 5 5 4 3 3 3 3 3 3 2 2 2
6 5 4 1 2 8 6 4 6 6 3 0 4 5 7 2 2 1 2 3 4 5 6 6 6 6 6 6 6 6 6 5 5 5 4 3 3 3 3 2 2 1 1 2
8 3 4 3 4 4 5 8 6 6 5 2 5 4 4 5 4 3 3 4 4 4 5 5 5 6 6 6 5 5 5 5 4 4 4 3 3 3 3 2 2 2 1 1
5 4 4 4 2 2 3 4 6 5 5 6 3 6 5 7 6 5 5 4 5 5 6 6 5 5 5 4 5 5 5 4 3 4 4 3 3 2 2 2 2 2 2 1
3 5 1 4 4 2 3 5 7 5 4 4 4 7 5 4 4 4 4 3 3 3 4 5 4 4 4 4 4 5 5 5 4 4 3 3 3 2 2 2 2 2 1 1
5 6 3 5 5 3 2 3 4 6 5 5 5 6 2 1 1 2 2 2 2 2 3 3 4 5 5 5 5 5 5 5 4 4 3 3 3 2 2 2 2 2 1 1
5 5 6 7 6 3 1 1 4 6 5 5 7 6 4 2 1 1 1 2 3 3 3 4 4 4 4 4 5 5 4 4 4 4 4 3 4 4 3 2 2 2 2 2
5 4 3 3 2 2 2 2 4 5 7 7 7 7 7 5 5 4 3 3 4 3 3 3 3 3 3 3 4 4 4 4 4 4 4 4 4 3 3 2 2 2 2 2
4 4 2 1 1 1 1 3 3 3 3 4 3 5 4 1 1 1 2 4 3 3 3 3 3 3 3 4 4 4 4 4 4 4 3 3 3 3 3 3 3 2 2 2
2 5 3 2 2 2 3 4 3 2 2 5 6 6 2 2 3 4 4 4 4 4 3 3 3 3 4 4 4 4 4 4 4 3 3 3 3 3 3 3 2 3 3 2
5 5 4 2 2 4 6 1 3 4 1 1 2 2 3 4 3 1 2 4 4 4 3 3 3 3 2 2 3 3 3 4 4 4 3 3 3 3 3 2 3 3 2 2
4 7 5 4 3 3 4 2 3 4 1 1 2 1 1 2 2 2 1 3 4 4 4 4 3 3 2 2 3 3 3 3 4 4 4 4 4 4 4 4 4 3 2 3
5 5 6 4 4 6 6 3 1 4 2 3 3 3 2 4 2 3 2 1 2 2 2 2 2 2 2 2 3 4 4 4 4 5 5 4 5 5 5 5 4 3 3 4
4 4 4 4 4 6 5 3 2 4 6 3 4 4 4 4 4 2 1 1 1 1 1 2 2 2 2 2 3 3 3 4 5 4 4 4 5 5 5 4 3 3 3 3
4 3 3 4 3 6 3 2 5 6 1 3 3 3 4 3 1 0 1 1 1 1 1 1 2 1 1 2 4 4 4 4 3 3 4 4 4 4 3 3 3 2 3 2
4 5 5 6 6 4 3 3 2 3 3 2 3 3 4 2 1 1 0 0 1 0 0 0 1 0 0 1 4 5 5 3 3 3 3 3 3 3 3 4 3 2 2 2
2 2 3 1 4 4 3 2 1 1 1 1 2 2 3 2 2 2 1 1 1 1 1 0 1 0 2 2 3 4 3 2 3 3 3 3 3 2 2 2 3 3 3 3
3 2 2 2 4 3 4 2 1 1 2 3 2 1 2 2 2 2 2 2 2 2 2 1 2 2 3 3 2 2 2 3 3 3 3 2 2 3 3 2 2 3 4 4
4 6 6 6 7 5 5 3 1 1 0 1 1 0 1 2 3 3 3 3 2 2 1 1 2 2 3 2 2 2 2 4 4 3 3 2 2 2 2 2 0 1 1 2
Wind_Direction
95 95 200 213 197 190 176 190 249 253 199 154 215 242 228 186 185 194 195 193 200 208 200 174 171 163 154 154 155 159 150 143 131 120 121 121 119 105 98 126 124 147 147 142
54 255 232 197 176 160 171 200 256 297 97 148 217 287 254 198 201 199 199 200 201 196 177 173 174 173 174 174 176 173 164 155 152 149 142 138 133 136 144 113 77 143 162 164
197 244 194 159 152 149 218 200 214 212 30 49 75 333 302 268 214 204 202 199 195 195 193 185 182 189 189 191 187 182 172 163 161 150 124 103 84 66 65 45 346 327 155 167
238 246 176 166 199 166 247 227 192 164 106 314 101 275 293 272 259 234 223 203 199 199 193 187 186 189 197 196 179 164 158 154 155 151 150 155 163 180 201 193 206 268 136 171
244 211 180 198 214 171 209 120 122 121 125 58 21 148 287 317 257 251 236 217 206 197 193 192 193 195 190 179 166 161 152 150 143 145 156 161 175 182 163 143 149 217 292 227
248 250 202 202 189 157 136 72 57 52 73 18 257 170 274 248 235 246 232 217 203 193 187 186 183 170 166 157 157 156 155 163 158 158 164 170 179 173 166 181 191 240 281 296
318 308 266 163 119 69 103 95 41 4 9 255 255 187 250 251 243 228 225 217 195 183 177 172 169 169 170 166 168 164 166 176 174 171 180 183 185 185 194 203 205 220 251 281
204 287 260 199 179 177 166 145 158 194 217 270 323 235 258 269 267 237 211 199 180 175 175 180 179 177 178 180 178 170 173 182 180 177 185 188 185 193 205 206 203 212 228 252
180 253 294 280 175 142 140 158 160 135 142 302 287 288 304 298 320 228 183 173 183 187 184 185 178 175 177 181 183 179 180 181 183 178 173 183 188 191 200 199 193 209 231 245
161 214 290 299 73 43 133 141 106 122 148 238 291 279 252 266 267 257 206 197 199 192 184 180 175 180 184 184 181 166 170 179 182 175 180 188 186 188 185 170 181 198 224 241
142 159 311 16 98 179 108 96 106 112 144 158 233 267 232 225 228 223 227 215 200 195 186 181 180 182 177 168 170 171 172 168 175 182 182 177 181 181 174 185 202 203 219 233
132 125 231 281 282 215 147 157 151 151 199 170 180 259 282 219 225 214 223 225 208 196 182 173 167 161 165 173 176 179 180 184 190 182 176 178 175 173 184 203 213 201 212 243
128 112 82 346 341 6 76 130 136 122 120 155 177 257 315 57 89 208 198 202 185 152 137 145 155 168 180 184 183 183 189 189 185 170 170 168 174 186 197 208 215 204 203 226
113 105 158 193 220 222 252 180 152 132 149 189 217 233 277 295 266 251 180 158 137 131 136 149 170 182 182 179 181 178 191 183 177 171 176 189 197 197 200 209 208 210 202 203
97 124 171 212 233 191 225 230 183 183 184 185 218 214 236 231 228 219 181 149 128 126 133 149 167 175 171 170 176 174 180 175 175 174 186 200 201 194 190 201 212 221 223 224
67 127 124 344 351 175 287 292 211 202 184 192 193 247 255 228 182 167 163 152 149 167 169 162 154 152 168 176 175 168 171 170 162 178 200 205 199 201 204 209 212 227 247 249
90 122 118 233 302 43 296 262 203 184 199 175 204 231 196 163 202 203 192 173 177 193 186 178 185 191 195 189 177 179 183 165 164 181 195 198 201 213 224 223 218 232 242 241
138 119 128 144 90 215 244 259 151 140 122 213 220 223 193 205 212 203 184 181 191 188 186 195 190 195 207 188 178 174 159 173 182 189 199 203 208 220 222 212 221 232 232 233
147 138 125 132 169 260 285 256 170 155 239 254 191 162 139 120 72 347 251 186 195 194 194 201 194 183 176 175 166 149 162 178 190 204 210 211 210 220 222 222 227 228 224 241
62 96 119 132 157 220 242 264 208 119 261 246 179 161 133 107 136 248 257 205 196 188 181 179 155 138 162 184 149 153 177 186 209 217 216 213 211 214 220 223 224 226 221 234
47 55 116 153 192 252 258 283 120 166 230 208 175 173 159 168 203 237 209 151 146 159 168 146 135 149 188 183 157 175 191 212 222 218 212 211 213 213 215 216 218 218 222 236
162 145 166 147 175 246 285 129 177 214 202 147 163 170 160 162 162 149 163 140 73 50 55 124 139 177 185 167 167 192 219 222 209 202 205 212 217 220 219 212 222 219 210 222
186 187 182 185 210 260 278 235 245 167 153 168 164 170 155 152 188 213 203 281 307 282 291 132 153 215 305 201 190 206 229 219 197 198 213 222 221 220 211 207 215 219 209 216
261 142 136 240 284 293 309 321 342 108 142 149 142 149 157 177 205 216 224 280 295 293 284 267 125 223 275 256 230 224 229 206 187 202 220 221 210 216 215 210 208 210 212 217
229 145 133 250 274 311 324 311 269 54 76 90 83 129 189 189 220 212 221 245 260 274 275 238 205 220 249 263 261 245 207 185 188 204 216 221 213 203 208 218 220 216 219 211
206 183 178 220 221 196 239 256 208 130 156 150 131 294 281 221 216 211 216 231 236 249 255 256 252 244 256 261 267 269 219 191 187 201 217 223 222 213 203 197 257 23 230 223
Height
1492 1498 1503 1500 1499 1500 1503 1508 1511 1505 1499 1503 1505 1505 1502 1502 1503 1504 1506 1507 1508 1509 1512 1514 1515 1517 1519 1520 1521 1522 1523 1524 1526 1527 1528 1529 1529 1530 1531 1532 1532 1533 1533 1534
1497 1500 1492 1491 1494 1497 1502 1509 1509 1504 1499 1503 1507 1506 1501 1501 1501 1502 1504 1505 1507 1509 1511 1513 1515 1516 1518 1519 1521 1522 1524 1525 1526 1527 1528 1529 1530 1530 1531 1531 1532 1532 1533 1533
1497 1493 1488 1491 1495 1500 1503 1507 1506 1507 1504 1504 1508 1511 1505 1501 1501 1502 1503 1504 1505 1507 1508 1511 1513 1515 1517 1518 1520 1522 1523 1525 1526 1527 1528 1529 1529 1529 1530 1530 1531 1532 1532 1532
1492 1488 1488 1491 1495 1497 1506 1496 1498 1503 1512 1520 1514 1529 1511 1505 1503 1501 1500 1501 1502 1504 1506 1508 1510 1512 1514 1516 1519 1520 1522 1524 1525 1526 1527 1528 1528 1528 1529 1530 1530 1531 1531 1532
1491 1486 1487 1491 1491 1491 1496 1493 1498 1504 1513 1521 1519 1527 1519 1507 1506 1500 1498 1498 1499 1501 1503 1506 1508 1510 1513 1515 1517 1519 1521 1523 1524 1525 1525 1526 1527 1528 1528 1529 1529 1530 1530 1530
1486 1483 1483 1484 1484 1487 1490 1498 1504 1512 1520 1532 1524 1528 1524 1511 1503 1497 1495 1495 1496 1498 1501 1504 1506 1509 1511 1514 1516 1518 1520 1521 1523 1524 1525 1525 1526 1527 1527 1528 1528 1528 1529 1529
1491 1485 1481 1481 1487 1489 1493 1511 1530 1533 1540 1536 1521 1524 1520 1499 1495 1493 1492 1492 1494 1496 1499 1502 1504 1507 1509 1512 1514 1516 1518 1520 1521 1522 1523 1524 1525 1526 1526 1527 1527 1527 1527 1527
1502 1502 1484 1480 1484 1491 1496 1505 1529 1539 1541 1534 1523 1524 1509 1493 1491 1490 1490 1491 1493 1495 1497 1500 1502 1505 1507 1510 1512 1514 1516 1518 1519 1520 1521 1522 1523 1524 1525 1526 1526 1526 1526 1526
1502 1500 1482 1478 1478 1484 1496 1504 1505 1524 1530 1535 1528 1517 1502 1491 1490 1489 1489 1490 1492 1494 1496 1498 1501 1503 1506 1508 1510 1512 1514 1516 1517 1518 1519 1520 1522 1523 1523 1524 1525 1525 1525 1525
1488 1496 1485 1480 1479 1483 1487 1497 1512 1524 1537 1540 1528 1521 1514 1497 1493 1490 1490 1490 1491 1493 1495 1497 1500 1502 1505 1507 1509 1511 1512 1514 1515 1516 1517 1519 1520 1521 1522 1522 1523 1523 1523 1523
1482 1495 1492 1487 1489 1491 1493 1500 1510 1521 1524 1536 1538 1524 1494 1492 1490 1489 1489 1489 1490 1491 1493 1496 1499 1501 1503 1505 1507 1509 1511 1513 1514 1515 1516 1517 1519 1520 1520 1521 1521 1522 1522 1522
1483 1495 1503 1494 1485 1483 1486 1493 1504 1515 1522 1527 1530 1519 1487 1487 1487 1487 1488 1488 1489 1491 1493 1495 1498 1500 1502 1504 1506 1508 1510 1512 1513 1514 1515 1516 1517 1518 1518 1519 1520 1520 1520 1520
1482 1495 1509 1506 1500 1490 1490 1492 1497 1506 1518 1527 1527 1512 1487 1486 1486 1486 1487 1488 1489 1490 1492 1495 1497 1499 1501 1503 1505 1506 1508 1509 1511 1512 1514 1515 1515 1516 1516 1517 1517 1518 1518 1518
1477 1493 1503 1509 1503 1493 1492 1492 1495 1502 1515 1519 1513 1503 1491 1488 1487 1487 1487 1487 1488 1490 1492 1494 1496 1498 1500 1501 1503 1504 1506 1507 1509 1511 1512 1512 1513 1514 1514 1515 1515 1516 1516 1516
1477 1492 1492 1492 1489 1489 1490 1490 1492 1495 1499 1505 1500 1498 1490 1487 1486 1486 1486 1487 1488 1489 1491 1493 1494 1496 1498 1500 1502 1503 1505 1506 1508 1509 1509 1509 1510 1512 1512 1513 1513 1513 1514 1514
1481 1490 1491 1492 1488 1488 1490 1488 1488 1491 1492 1494 1494 1493 1486 1486 1486 1487 1487 1487 1488 1489 1490 1492 1494 1495 1497 1499 1500 1501 1503 1505 1506 1507 1507 1508 1509 1509 1510 1510 1511 1511 1511 1511
1487 1491 1498 1501 1493 1490 1498 1490 1488 1489 1488 1490 1493 1489 1485 1486 1486 1486 1487 1487 1488 1489 1490 1492 1493 1495 1496 1497 1498 1499 1501 1502 1503 1504 1505 1506 1506 1507 1508 1508 1508 1508 1508 1508
1486 1493 1501 1504 1499 1507 1495 1482 1483 1486 1486 1485 1485 1484 1484 1484 1485 1485 1486 1487 1488 1489 1490 1491 1493 1494 1495 1496 1497 1498 1499 1500 1501 1502 1502 1503 1504 1505 1505 1505 1505 1505 1505 1505
1481 1490 1502 1508 1508 1502 1490 1483 1483 1486 1488 1484 1483 1483 1483 1484 1484 1485 1486 1486 1487 1488 1489 1491 1491 1492 1493 1494 1495 1496 1497 1497 1498 1498 1499 1500 1501 1502 1502 1502 1502 1502 1502 1501
1483 1486 1498 1506 1506 1507 1491 1479 1478 1483 1489 1482 1482 1482 1483 1483 1489 1487 1485 1486 1486 1487 1488 1489 1490 1491 1492 1493 1493 1494 1494 1495 1495 1496 1496 1497 1498 1498 1498 1498 1498 1498 1498 1498
1491 1494 1499 1502 1503 1496 1482 1478 1479 1492 1488 1479 1480 1480 1481 1483 1485 1485 1484 1485 1485 1486 1487 1488 1488 1489 1489 1490 1491 1491 1492 1492 1492 1493 1493 1494 1494 1495 1495 1495 1495 1495 1495 1494
1492 1496 1500 1502 1502 1497 1478 1478 1482 1481 1476 1477 1478 1480 1480 1481 1482 1483 1483 1484 1484 1484 1485 1486 1486 1486 1487 1487 1488 1488 1488 1488 1489 1490 1490 1490 1491 1491 1491 1491 1491 1491 1491 1491
1488 1488 1490 1491 1491 1481 1478 1477 1476 1476 1476 1477 1478 1479 1480 1481 1482 1482 1483 1483 1483 1484 1484 1484 1484 1484 1484 1485 1485 1485 1485 1486 1486 1486 1486 1487 1487 1487 1487 1487 1487 1487 1487 1488
1484 1483 1485 1486 1481 1478 1477 1476 1476 1476 1476 1477 1478 1480 1480 1481 1481 1482 1482 1482 1482 1482 1482 1482 1482 1481 1482 1482 1482 1483 1483 1483 1483 1483 1483 1483 1483 1483 1483 1483 1484 1484 1484 1484
1481 1482 1484 1485 1480 1478 1476 1476 1477 1477 1477 1478 1479 1479 1480 1480 1480 1480 1480 1480 1481 1480 1480 1480 1480 1479 1479 1479 1479 1479 1479 1480 1480 1480 1480 1480 1480 1480 1480 1480 1480 1480 1480 1481
1478 1479 1482 1481 1476 1476 1476 1476 1476 1477 1477 1477 1478 1478 1479 1479 1479 1478 1478 1478 1478 1478 1478 1478 1478 1477 1476 1476 1476 1476 1476 1476 1476 1476 1477 1477 1476 1476 1476 1476 1477 1477 1478 1478